星链-11481 (STARLINK-11481)

导读 | 豆包AI

STARLINK-11481是美国太空探索技术公司SpaceX星链星座的成员,于2024年12月5日发射入轨,归属美国所有。它属于星链互联网卫星星座组网的一部分,旨在为全球范围内用户提供低延迟、高速率的卫星宽带互联网服务,进一步扩充星链星座的在轨服务规模,提升星座覆盖与通信能力。

基本信息
目录编号:
62230
目录名称:
STARLINK-11481
国际标识:
2024-231N
轨道中心:
EARTH
卫星名称:
星链-11481
卫星全名:
星链-11481 (STARLINK-11481)
卫星状态:
在轨 (已飞行465 天)
发射日期:
2024-12-05 UTC
国别 :
美国 (US)
星等 :
--
轨道信息
数据来源 国际轨道数据
星历时间: 2026-03-14T21:44:35+0800
16小时前
查看轨道信息
半长轴: 6737.634km
偏心率: 0.0003242
轨道倾角: 53.157°
近地点辐角 28.713°
升交点赤经 77.542°
平近点角 331.407°
近地点: 357.312km
远地点: 361.682km
周期: 91.732分钟
每日圈数: 15.697905
详细信息
固有亮度:
5
最大亮度:
2.5
卫星平台:
Starlink V1.0
覆盖范围:
全球
运营商:
太空探索技术公司
运营商所在国:
美国
制造商(研发单位):
太空探索技术公司
制造商所在国:
美国
使用方式:
暂无
卫星简介
Starlink 计划是 SpaceX 推出的全球卫星互联网项目,通过发射低轨道卫星,为全球尤其是偏远地区提供高速、低延迟的互联网服务。自 2019 年起,Starlink 已部署数千颗卫星,旨在缩小全球数字鸿沟,推动互联网普及。该项目还为军事、航空等行业提供通信支持,带来广泛经济效益。
2D轨道图
3D轨道图
轨道高度分析图
轨道倾角分析图
轨道综合分析图
查看轨道综合分析图